Torna al catalogo

STARLINK-31856

AttivoComunicazioniVLEO
NORAD 59960·PAYLOAD·🇺🇸 United States

Lanciato Jun 5, 2024 da Cape Canaveral Space Force Station

Loading…

Prossimi Passaggi (prossime 24 ore)

TLE

AggiornatoSource: CelesTrak SupGP

Epoca: Sep 14, 2026, 22:50 UTC

1 59960C 24107R   26257.95187500  .00039795  00000+0  11757-2 0  2572
2 59960  53.1575 263.3096 0001047  83.6118  50.1689 15.34372900    19

Traccia STARLINK-31856 in tempo reale con AllMySat

Download on the App Store